TimeCDT,TemperatureF,Dew PointF,Humidity,Sea Level PressureIn,VisibilityMPH,Wind Direction,Wind SpeedMPH,Gust SpeedMPH,PrecipitationIn,Events,Conditions,WindDirDegrees,DateUTC
12:15 AM,41.0,37.4,87,30.14,10.0,Calm,Calm,-,N/A,,Clear,0,2013-04-27 05:15:00
12:35 AM,37.4,35.6,93,30.15,10.0,WNW,3.5,-,N/A,,Clear,290,2013-04-27 05:35:00
12:55 AM,37.4,35.6,93,30.14,10.0,Calm,Calm,-,N/A,,Clear,0,2013-04-27 05:55:00
1:15 AM,37.4,35.6,93,30.15,10.0,Calm,Calm,-,N/A,,Clear,0,2013-04-27 06:15:00
1:35 AM,39.2,37.4,93,30.15,10.0,Calm,Calm,-,N/A,,Clear,0,2013-04-27 06:35:00
1:55 AM,37.4,35.6,93,30.15,10.0,Calm,Calm,-,N/A,,Clear,0,2013-04-27 06:55:00
2:15 AM,37.4,35.6,93,30.15,10.0,SE,3.5,-,N/A,,Clear,130,2013-04-27 07:15:00
2:35 AM,37.4,33.8,87,30.14,10.0,Calm,Calm,-,N/A,,Clear,0,2013-04-27 07:35:00
2:55 AM,35.6,33.8,93,30.13,7.0,Calm,Calm,-,N/A,,Clear,0,2013-04-27 07:55:00
3:15 AM,35.6,33.8,93,30.13,7.0,Calm,Calm,-,N/A,,Clear,0,2013-04-27 08:15:00
3:35 AM,35.6,33.8,93,30.13,7.0,Calm,Calm,-,N/A,,Clear,0,2013-04-27 08:35:00
3:55 AM,35.6,33.8,93,30.13,5.0,Calm,Calm,-,N/A,,Clear,0,2013-04-27 08:55:00
4:15 AM,33.8,33.8,100,30.13,5.0,Calm,Calm,-,N/A,,Clear,0,2013-04-27 09:15:00
4:35 AM,33.8,32.0,93,30.13,4.0,Calm,Calm,-,N/A,,Clear,0,2013-04-27 09:35:00
5:15 AM,33.8,32.0,93,30.12,4.0,Calm,Calm,-,N/A,,Clear,0,2013-04-27 10:15:00
5:35 AM,33.8,32.0,93,30.12,5.0,Calm,Calm,-,N/A,,Clear,0,2013-04-27 10:35:00
6:35 AM,32.0,32.0,100,30.12,4.0,Calm,Calm,-,N/A,,Clear,0,2013-04-27 11:35:00
7:15 AM,35.6,33.8,93,30.13,5.0,Calm,Calm,-,N/A,,Clear,0,2013-04-27 12:15:00
7:35 AM,37.4,35.6,93,30.13,7.0,Calm,Calm,-,N/A,,Clear,0,2013-04-27 12:35:00
7:55 AM,41.0,37.4,87,30.13,10.0,ESE,3.5,-,N/A,,Clear,110,2013-04-27 12:55:00
8:15 AM,42.8,37.4,81,30.14,10.0,ESE,3.5,-,N/A,,Clear,110,2013-04-27 13:15:00
8:35 AM,44.6,37.4,76,30.14,10.0,SE,3.5,-,N/A,,Clear,130,2013-04-27 13:35:00
9:15 AM,50.0,39.2,66,30.13,10.0,SE,3.5,-,N/A,,Clear,130,2013-04-27 14:15:00
9:35 AM,51.8,41.0,67,30.13,10.0,ESE,3.5,-,N/A,,Clear,110,2013-04-27 14:35:00
9:55 AM,53.6,41.0,62,30.13,10.0,SE,3.5,-,N/A,,Clear,130,2013-04-27 14:55:00
10:15 AM,55.4,41.0,58,30.13,10.0,SSE,3.5,-,N/A,,Clear,160,2013-04-27 15:15:00
10:35 AM,59.0,41.0,51,30.12,10.0,South,4.6,-,N/A,,Clear,180,2013-04-27 15:35:00
10:55 AM,59.0,41.0,51,30.12,10.0,South,4.6,-,N/A,,Clear,170,2013-04-27 15:55:00
11:15 AM,60.8,41.0,48,30.12,10.0,SSE,3.5,-,N/A,,Clear,150,2013-04-27 16:15:00
11:35 AM,62.6,41.0,45,30.11,10.0,SSW,4.6,-,N/A,,Clear,210,2013-04-27 16:35:00
11:55 AM,64.4,42.8,45,30.11,10.0,SSE,3.5,-,N/A,,Clear,160,2013-04-27 16:55:00
12:15 PM,64.4,41.0,42,30.10,10.0,South,4.6,-,N/A,,Clear,180,2013-04-27 17:15:00
12:35 PM,68.0,41.0,37,30.09,10.0,SW,8.1,-,N/A,,Clear,230,2013-04-27 17:35:00
12:55 PM,68.0,37.4,33,30.09,10.0,South,6.9,-,N/A,,Clear,190,2013-04-27 17:55:00
1:15 PM,68.0,37.4,33,30.08,10.0,SW,8.1,-,N/A,,Clear,220,2013-04-27 18:15:00
1:35 PM,68.0,37.4,33,30.07,10.0,SW,6.9,-,N/A,,Clear,230,2013-04-27 18:35:00
1:55 PM,69.8,37.4,31,30.06,10.0,South,4.6,-,N/A,,Clear,180,2013-04-27 18:55:00
2:15 PM,69.8,35.6,28,30.06,10.0,SW,9.2,-,N/A,,Clear,220,2013-04-27 19:15:00
2:35 PM,69.8,35.6,28,30.05,10.0,South,9.2,-,N/A,,Scattered Clouds,180,2013-04-27 19:35:00
2:55 PM,69.8,37.4,31,30.04,10.0,SW,11.5,-,N/A,,Scattered Clouds,220,2013-04-27 19:55:00
3:15 PM,71.6,35.6,27,30.03,10.0,South,9.2,-,N/A,,Mostly Cloudy,170,2013-04-27 20:15:00
3:35 PM,69.8,35.6,28,30.03,10.0,SW,6.9,17.3,N/A,,Scattered Clouds,230,2013-04-27 20:35:00
3:55 PM,69.8,35.6,28,30.02,10.0,SSW,13.8,19.6,N/A,,Scattered Clouds,200,2013-04-27 20:55:00
4:15 PM,69.8,35.6,28,30.01,10.0,SW,9.2,16.1,N/A,,Scattered Clouds,220,2013-04-27 21:15:00
4:55 PM,71.6,35.6,27,29.99,10.0,SW,15.0,18.4,N/A,,Scattered Clouds,220,2013-04-27 21:55:00
5:15 PM,71.6,35.6,27,29.99,10.0,SW,13.8,21.9,N/A,,Clear,220,2013-04-27 22:15:00
5:35 PM,69.8,35.6,28,29.99,10.0,South,11.5,-,N/A,,Clear,180,2013-04-27 22:35:00
5:55 PM,69.8,35.6,28,29.98,10.0,SSW,9.2,-,N/A,,Clear,210,2013-04-27 22:55:00
6:15 PM,69.8,37.4,31,29.98,10.0,South,8.1,-,N/A,,Clear,190,2013-04-27 23:15:00
6:35 PM,69.8,35.6,28,29.98,10.0,SW,8.1,-,N/A,,Clear,220,2013-04-27 23:35:00
6:55 PM,69.8,37.4,31,29.97,10.0,SSW,6.9,-,N/A,,Clear,210,2013-04-27 23:55:00
7:15 PM,68.0,42.8,40,29.97,10.0,South,9.2,-,N/A,,Scattered Clouds,170,2013-04-28 00:15:00
7:35 PM,66.2,44.6,46,29.97,10.0,South,9.2,-,N/A,,Scattered Clouds,180,2013-04-28 00:35:00
7:55 PM,62.6,44.6,52,29.97,10.0,South,8.1,-,N/A,,Scattered Clouds,180,2013-04-28 00:55:00
8:15 PM,62.6,44.6,52,29.96,10.0,South,5.8,-,N/A,,Clear,170,2013-04-28 01:15:00
8:35 PM,60.8,44.6,55,29.96,10.0,South,8.1,-,N/A,,Clear,180,2013-04-28 01:35:00
8:55 PM,60.8,44.6,55,29.96,10.0,South,9.2,-,N/A,,Clear,190,2013-04-28 01:55:00
9:15 PM,60.8,44.6,55,29.96,10.0,South,8.1,-,N/A,,Clear,180,2013-04-28 02:15:00
9:35 PM,59.0,44.6,59,29.96,10.0,South,6.9,-,N/A,,Clear,170,2013-04-28 02:35:00
9:55 PM,55.4,44.6,67,29.96,10.0,South,6.9,-,N/A,,Clear,170,2013-04-28 02:55:00
10:15 PM,55.4,44.6,67,29.96,10.0,South,4.6,-,N/A,,Clear,170,2013-04-28 03:15:00
10:35 PM,55.4,44.6,67,29.97,10.0,South,6.9,-,N/A,,Clear,180,2013-04-28 03:35:00
10:55 PM,59.0,44.6,59,29.96,10.0,South,6.9,-,N/A,,Clear,180,2013-04-28 03:55:00
11:15 PM,57.2,44.6,63,29.95,10.0,South,9.2,-,N/A,,Clear,170,2013-04-28 04:15:00
11:35 PM,55.4,44.6,67,29.94,10.0,South,6.9,-,N/A,,Clear,170,2013-04-28 04:35:00
11:55 PM,53.6,42.8,67,29.94,10.0,SSE,6.9,-,N/A,,Clear,160,2013-04-28 04:55:00